• In Uzbekistan
  • List of Countries
  • For 7 days
  • Water Temperature
  • Satellite Maps
  • Weather Map
  • Weather Widgets
  • user-avatar
    Login

    Hourly Weather Novolaspa

    Today, 27 May, Sunday

    Time Temperature Precipitation Wind Pressure Humidity
    00:00 +12°C° 0 mm 7 mps 754 mmHg 56%
    01:00 +11°C° 0 mm 7 mps 754 mmHg 56%
    02:00 +11°C° 0 mm 7 mps 754 mmHg 56%
    03:00 +10°C° 0 mm 5 mps 754 mmHg 59%
    04:00 +10°C° 0 mm 6 mps 754 mmHg 60%
    05:00 +10°C° 0 mm 6 mps 755 mmHg 61%
    06:00 +10°C° 0 mm 7 mps 755 mmHg 63%
    07:00 +12°C° 0 mm 7 mps 755 mmHg 59%
    08:00 +13°C° 0 mm 8 mps 755 mmHg 55%
    09:00 +15°C° 0 mm 9 mps 755 mmHg 50%
    10:00 +16°C° 0 mm 9 mps 755 mmHg 49%
    11:00 +17°C° 0 mm 8 mps 755 mmHg 47%
    12:00 +18°C° 0 mm 8 mps 755 mmHg 46%
    13:00 +18°C° 0 mm 8 mps 755 mmHg 46%
    14:00 +20°C° 0 mm 8 mps 754 mmHg 46%
    15:00 +22°C° 0 mm 6 mps 753 mmHg 47%
    16:00 +21°C° 0 mm 6 mps 753 mmHg 49%
    17:00 +21°C° 0 mm 6 mps 753 mmHg 51%
    18:00 +20°C° 0 mm 6 mps 753 mmHg 54%
    19:00 +19°C° 0 mm 5 mps 753 mmHg 58%
    20:00 +16°C° 0 mm 5 mps 753 mmHg 62%
    21:00 +14°C° 0 mm 4 mps 752 mmHg 66%
    22:00 +14°C° 0 mm 4 mps 752 mmHg 66%
    23:00 +13°C° 0 mm 4 mps 752 mmHg 66%

    Tomorrow, 28 May, Monday

    Time Temperature Precipitation Wind Pressure Humidity
    00:00 +12°C° 0 mm 4 mps 752 mmHg 66%
    01:00 +12°C° 0 mm 4 mps 752 mmHg 65%
    02:00 +11°C° 0 mm 4 mps 752 mmHg 64%
    03:00 +11°C° 0 mm 4 mps 752 mmHg 63%
    04:00 +10°C° 0 mm 5 mps 752 mmHg 63%
    05:00 +10°C° 0 mm 5 mps 752 mmHg 62%
    06:00 +10°C° 0 mm 5 mps 752 mmHg 62%
    07:00 +13°C° 0 mm 6 mps 752 mmHg 57%
    08:00 +15°C° 0 mm 6 mps 752 mmHg 53%
    09:00 +17°C° 0 mm 6 mps 752 mmHg 48%
    10:00 +19°C° 0 mm 6 mps 752 mmHg 46%
    11:00 +20°C° 0 mm 6 mps 752 mmHg 44%
    12:00 +21°C° 0 mm 6 mps 752 mmHg 42%
    13:00 +22°C° 0 mm 6 mps 752 mmHg 42%
    14:00 +22°C° 0 mm 6 mps 752 mmHg 42%
    15:00 +23°C° 0 mm 6 mps 752 mmHg 42%
    16:00 +23°C° 0 mm 5 mps 752 mmHg 45%
    17:00 +23°C° 0 mm 5 mps 752 mmHg 48%
    18:00 +22°C° 0 mm 4 mps 752 mmHg 51%
    19:00 +21°C° 0 mm 4 mps 752 mmHg 55%
    20:00 +19°C° 0 mm 4 mps 752 mmHg 60%
    21:00 +17°C° 0 mm 4 mps 752 mmHg 64%
    22:00 +17°C° 0 mm 4 mps 752 mmHg 67%
    23:00 +17°C° 0 mm 4 mps 752 mmHg 69%

    Day after tomorrow, 29 May, Tuesday

    Time Temperature Precipitation Wind Pressure Humidity
    00:00 +15°C° 0 mm 4 mps 752 mmHg 72%
    01:00 +15°C° 0 mm 5 mps 753 mmHg 74%
    02:00 +15°C° 0 mm 5 mps 753 mmHg 77%
    03:00 +15°C° 0 mm 6 mps 753 mmHg 80%
    04:00 +15°C° 0 mm 7 mps 753 mmHg 76%
    05:00 +14°C° 0 mm 7 mps 753 mmHg 72%
    06:00 +14°C° 0 mm 7 mps 753 mmHg 69%
    07:00 +15°C° 0 mm 8 mps 753 mmHg 64%
    08:00 +16°C° 0 mm 8 mps 754 mmHg 60%
    09:00 +18°C° 0 mm 8 mps 754 mmHg 56%
    10:00 +18°C° 0 mm 8 mps 754 mmHg 53%
    11:00 +20°C° 0 mm 8 mps 754 mmHg 50%
    12:00 +21°C° 0 mm 8 mps 754 mmHg 47%
    13:00 +21°C° 0 mm 8 mps 753 mmHg 47%
    14:00 +21°C° 0 mm 8 mps 753 mmHg 47%
    15:00 +22°C° 0 mm 8 mps 753 mmHg 47%
    16:00 +21°C° 0 mm 8 mps 753 mmHg 49%
    17:00 +21°C° 0 mm 7 mps 752 mmHg 51%
    18:00 +20°C° 0 mm 7 mps 752 mmHg 52%
    19:00 +17°C° 0 mm 7 mps 752 mmHg 54%
    20:00 +16°C° 0 mm 6 mps 752 mmHg 55%
    21:00 +14°C° 0 mm 6 mps 752 mmHg 56%
    22:00 +14°C° 0 mm 6 mps 752 mmHg 55%
    23:00 +13°C° 0 mm 6 mps 752 mmHg 54%

    30 May, Wednesday

    Time Temperature Precipitation Wind Pressure Humidity
    00:00 +11°C° 0 mm 6 mps 752 mmHg 53%
    01:00 +11°C° 0 mm 6 mps 752 mmHg 52%
    02:00 +12°C° 0 mm 5 mps 751 mmHg 52%
    03:00 +10°C° 0 mm 5 mps 751 mmHg 51%
    04:00 +10°C° 0 mm 5 mps 751 mmHg 53%
    05:00 +10°C° 0 mm 5 mps 751 mmHg 55%
    06:00 +10°C° 0 mm 5 mps 751 mmHg 56%
    07:00 +13°C° 0 mm 6 mps 751 mmHg 52%
    08:00 +15°C° 0 mm 6 mps 751 mmHg 48%
    09:00 +17°C° 0 mm 6 mps 751 mmHg 44%
    10:00 +19°C° 0 mm 6 mps 751 mmHg 42%
    11:00 +20°C° 0 mm 6 mps 750 mmHg 40%
    12:00 +21°C° 0 mm 6 mps 750 mmHg 38%
    13:00 +22°C° 0 mm 6 mps 749 mmHg 38%
    14:00 +22°C° 0 mm 6 mps 749 mmHg 39%
    15:00 +23°C° 0 mm 6 mps 748 mmHg 39%
    16:00 +23°C° 0 mm 5 mps 748 mmHg 42%
    17:00 +22°C° 0 mm 5 mps 748 mmHg 45%
    18:00 +22°C° 0 mm 4 mps 748 mmHg 48%
    19:00 +20°C° 0 mm 4 mps 747 mmHg 52%
    20:00 +18°C° 0 mm 3 mps 747 mmHg 56%
    21:00 +17°C° 0 mm 3 mps 747 mmHg 60%
    22:00 +16°C° 0 mm 3 mps 747 mmHg 60%
    23:00 +14°C° 0 mm 3 mps 746 mmHg 61%

    31 May, Thursday

    Time Temperature Precipitation Wind Pressure Humidity
    00:00 +14°C° 0 mm 3 mps 746 mmHg 61%
    01:00 +14°C° 0 mm 3 mps 746 mmHg 60%
    02:00 +13°C° 0 mm 3 mps 746 mmHg 60%
    03:00 +13°C° 0 mm 3 mps 745 mmHg 59%
    04:00 +13°C° 0 mm 3 mps 745 mmHg 60%
    05:00 +13°C° 0 mm 4 mps 745 mmHg 61%
    06:00 +13°C° 0 mm 4 mps 744 mmHg 62%
    07:00 +15°C° 0 mm 4 mps 744 mmHg 57%
    08:00 +19°C° 0 mm 4 mps 744 mmHg 53%
    09:00 +21°C° 0 mm 4 mps 744 mmHg 48%
    10:00 +22°C° 0 mm 4 mps 744 mmHg 45%
    11:00 +23°C° 0 mm 4 mps 743 mmHg 42%
    12:00 +25°C° 0 mm 4 mps 743 mmHg 38%
    13:00 +26°C° 0 mm 4 mps 743 mmHg 38%
    14:00 +26°C° 0 mm 4 mps 742 mmHg 37%
    15:00 +27°C° 0 mm 4 mps 742 mmHg 37%
    16:00 +27°C° 0 mm 3 mps 742 mmHg 40%
    17:00 +26°C° 0 mm 3 mps 741 mmHg 43%
    18:00 +26°C° 0 mm 3 mps 741 mmHg 46%
    19:00 +24°C° 0 mm 2 mps 741 mmHg 51%
    20:00 +21°C° 0 mm 2 mps 741 mmHg 57%
    21:00 +19°C° 0 mm 2 mps 741 mmHg 62%
    22:00 +20°C° 0 mm 1 mps 741 mmHg 63%
    23:00 +19°C° 0 mm 1 mps 741 mmHg 64%

    1 June, Friday

    Time Temperature Precipitation Wind Pressure Humidity
    00:00 +19°C° 0 mm 1 mps 741 mmHg 66%
    01:00 +18°C° 0 mm 1 mps 741 mmHg 66%
    02:00 +18°C° 0 mm 1 mps 741 mmHg 67%
    03:00 +17°C° 0 mm 2 mps 740 mmHg 67%
    04:00 +17°C° 0 mm 2 mps 741 mmHg 67%
    05:00 +17°C° 0 mm 2 mps 741 mmHg 68%
    06:00 +17°C° 0 mm 2 mps 741 mmHg 68%
    07:00 +19°C° 0 mm 2 mps 741 mmHg 62%
    08:00 +21°C° 0 mm 2 mps 741 mmHg 56%
    09:00 +24°C° 0 mm 2 mps 741 mmHg 50%
    10:00 +25°C° 0 mm 2 mps 741 mmHg 47%
    11:00 +26°C° 0 mm 2 mps 741 mmHg 45%
    12:00 +27°C° 0 mm 2 mps 741 mmHg 42%
    13:00 +28°C° 0 mm 2 mps 741 mmHg 42%
    14:00 +28°C° 0 mm 2 mps 740 mmHg 41%
    15:00 +28°C° 0 mm 2 mps 740 mmHg 41%
    16:00 +28°C° 0 mm 2 mps 740 mmHg 45%
    17:00 +27°C° 0 mm 2 mps 740 mmHg 48%
    18:00 +27°C° 0 mm 2 mps 740 mmHg 52%
    19:00 +25°C° 0 mm 2 mps 740 mmHg 56%
    20:00 +24°C° 0 mm 2 mps 740 mmHg 60%
    21:00 +21°C° 0 mm 2 mps 741 mmHg 64%
    22:00 +21°C° 0 mm 2 mps 741 mmHg 67%
    23:00 +20°C° 0 mm 2 mps 741 mmHg 70%
    Show more